• In Belgium
  • List of Countries
  • For 7 days
  • Water Temperature
  • Satellite Maps
  • Weather Map
  • Weather Widgets
  • user-avatar
    Login

    Hourly Weather Kalkan

    Today, 21 November, Tuesday

    Time Temperature Precipitation Wind Pressure Humidity
    00:00 +11°C° 0 mm 9 mps 754 mmHg 84%
    01:00 +9°C° 0 mm 10 mps 755 mmHg 85%
    02:00 +8°C° 0 mm 10 mps 755 mmHg 86%
    03:00 +8°C° 0 mm 10 mps 755 mmHg 85%
    04:00 +7°C° 0 mm 9 mps 756 mmHg 85%
    05:00 +7°C° 0 mm 9 mps 756 mmHg 84%
    06:00 +7°C° 0 mm 9 mps 757 mmHg 80%
    07:00 +7°C° 0 mm 9 mps 757 mmHg 77%
    08:00 +7°C° 0 mm 9 mps 758 mmHg 73%
    09:00 +10°C° 0 mm 8 mps 758 mmHg 65%
    10:00 +11°C° 0 mm 8 mps 758 mmHg 58%
    11:00 +12°C° 0 mm 8 mps 759 mmHg 50%
    12:00 +12°C° 0 mm 8 mps 759 mmHg 48%
    13:00 +12°C° 0 mm 8 mps 759 mmHg 46%
    14:00 +13°C° 0 mm 8 mps 759 mmHg 43%
    15:00 +11°C° 0 mm 8 mps 759 mmHg 48%
    16:00 +10°C° 0 mm 7 mps 759 mmHg 53%
    17:00 +9°C° 0 mm 7 mps 759 mmHg 59%
    18:00 +8°C° 0 mm 7 mps 760 mmHg 60%
    19:00 +6°C° 0 mm 7 mps 760 mmHg 61%
    20:00 +6°C° 0 mm 7 mps 761 mmHg 63%
    21:00 +6°C° 0 mm 7 mps 761 mmHg 59%
    22:00 +6°C° 0 mm 7 mps 761 mmHg 56%
    23:00 +7°C° 0 mm 6 mps 762 mmHg 52%

    Tomorrow, 22 November, Wednesday

    Time Temperature Precipitation Wind Pressure Humidity
    00:00 +7°C° 0 mm 6 mps 762 mmHg 48%
    01:00 +7°C° 0 mm 6 mps 762 mmHg 44%
    02:00 +7°C° 0 mm 6 mps 762 mmHg 40%
    03:00 +7°C° 0 mm 6 mps 762 mmHg 37%
    04:00 +7°C° 0 mm 6 mps 761 mmHg 35%
    05:00 +7°C° 0 mm 6 mps 761 mmHg 32%
    06:00 +7°C° 0 mm 6 mps 762 mmHg 30%
    07:00 +8°C° 0 mm 5 mps 762 mmHg 29%
    08:00 +9°C° 0 mm 5 mps 762 mmHg 28%
    09:00 +12°C° 0 mm 5 mps 762 mmHg 28%
    10:00 +14°C° 0 mm 4 mps 762 mmHg 28%
    11:00 +15°C° 0 mm 4 mps 762 mmHg 28%
    12:00 +17°C° 0 mm 4 mps 762 mmHg 30%
    13:00 +17°C° 0 mm 4 mps 762 mmHg 33%
    14:00 +17°C° 0 mm 4 mps 762 mmHg 35%
    15:00 +14°C° 0 mm 4 mps 762 mmHg 42%
    16:00 +13°C° 0 mm 4 mps 762 mmHg 50%
    17:00 +11°C° 0 mm 4 mps 762 mmHg 57%
    18:00 +11°C° 0 mm 4 mps 762 mmHg 56%
    19:00 +11°C° 0 mm 4 mps 763 mmHg 55%
    20:00 +10°C° 0 mm 4 mps 763 mmHg 54%
    21:00 +10°C° 0 mm 4 mps 763 mmHg 54%
    22:00 +10°C° 0 mm 3 mps 763 mmHg 55%
    23:00 +10°C° 0 mm 3 mps 763 mmHg 55%

    Day after tomorrow, 23 November, Thursday

    Time Temperature Precipitation Wind Pressure Humidity
    00:00 +10°C° 0 mm 3 mps 763 mmHg 56%
    01:00 +10°C° 0 mm 3 mps 763 mmHg 57%
    02:00 +10°C° 0 mm 2 mps 763 mmHg 57%
    03:00 +10°C° 0 mm 2 mps 763 mmHg 57%
    04:00 +10°C° 0 mm 2 mps 763 mmHg 56%
    05:00 +10°C° 0 mm 2 mps 762 mmHg 56%
    06:00 +12°C° 0 mm 2 mps 763 mmHg 55%
    07:00 +13°C° 0 mm 2 mps 763 mmHg 54%
    08:00 +14°C° 0 mm 2 mps 763 mmHg 53%
    09:00 +15°C° 0 mm 2 mps 763 mmHg 50%
    10:00 +17°C° 0 mm 2 mps 763 mmHg 46%
    11:00 +19°C° 0 mm 2 mps 763 mmHg 43%
    12:00 +19°C° 0 mm 2 mps 763 mmHg 44%
    13:00 +19°C° 0 mm 2 mps 763 mmHg 45%
    14:00 +19°C° 0 mm 3 mps 762 mmHg 46%
    15:00 +17°C° 0 mm 3 mps 762 mmHg 55%
    16:00 +16°C° 0 mm 3 mps 762 mmHg 63%
    17:00 +13°C° 0 mm 3 mps 762 mmHg 71%
    18:00 +13°C° 0 mm 3 mps 763 mmHg 68%
    19:00 +13°C° 0 mm 3 mps 763 mmHg 66%
    20:00 +13°C° 0 mm 4 mps 763 mmHg 64%
    21:00 +13°C° 0 mm 3 mps 763 mmHg 62%
    22:00 +12°C° 0 mm 3 mps 763 mmHg 61%
    23:00 +12°C° 0 mm 3 mps 764 mmHg 59%

    24 November, Friday

    Time Temperature Precipitation Wind Pressure Humidity
    00:00 +12°C° 0 mm 3 mps 763 mmHg 57%
    01:00 +12°C° 0 mm 3 mps 763 mmHg 55%
    02:00 +12°C° 0 mm 3 mps 763 mmHg 53%
    03:00 +12°C° 0 mm 3 mps 763 mmHg 50%
    04:00 +12°C° 0 mm 3 mps 763 mmHg 48%
    05:00 +12°C° 0 mm 3 mps 763 mmHg 45%
    06:00 +13°C° 0 mm 2 mps 763 mmHg 44%
    07:00 +14°C° 0 mm 2 mps 763 mmHg 43%
    08:00 +15°C° 0 mm 2 mps 764 mmHg 42%
    09:00 +16°C° 0 mm 2 mps 764 mmHg 40%
    10:00 +19°C° 0 mm 1 mps 763 mmHg 38%
    11:00 +21°C° 0 mm 1 mps 763 mmHg 35%
    12:00 +21°C° 0 mm 1 mps 763 mmHg 37%
    13:00 +21°C° 0 mm 1 mps 763 mmHg 39%
    14:00 +22°C° 0 mm 1 mps 763 mmHg 41%
    15:00 +19°C° 0 mm 1 mps 763 mmHg 51%
    16:00 +16°C° 0 mm 1 mps 763 mmHg 61%
    17:00 +14°C° 0 mm 1 mps 763 mmHg 71%
    18:00 +14°C° 0 mm 1 mps 763 mmHg 71%
    19:00 +14°C° 0 mm 1 mps 763 mmHg 70%
    20:00 +14°C° 0 mm 1 mps 764 mmHg 69%
    21:00 +14°C° 0 mm 1 mps 764 mmHg 69%
    22:00 +13°C° 0 mm 1 mps 764 mmHg 69%
    23:00 +13°C° 0 mm 1 mps 764 mmHg 69%

    25 November, Saturday

    Time Temperature Precipitation Wind Pressure Humidity
    00:00 +13°C° 0 mm 1 mps 764 mmHg 69%
    01:00 +13°C° 0 mm 1 mps 764 mmHg 68%
    02:00 +13°C° 0 mm 1 mps 764 mmHg 68%
    03:00 +13°C° 0 mm 2 mps 764 mmHg 68%
    04:00 +12°C° 0 mm 2 mps 764 mmHg 69%
    05:00 +12°C° 0 mm 2 mps 764 mmHg 69%
    06:00 +13°C° 0 mm 2 mps 764 mmHg 66%
    07:00 +14°C° 0 mm 2 mps 765 mmHg 63%
    08:00 +15°C° 0 mm 2 mps 765 mmHg 60%
    09:00 +16°C° 0 mm 3 mps 765 mmHg 57%
    10:00 +18°C° 0 mm 3 mps 765 mmHg 53%
    11:00 +19°C° 0 mm 3 mps 765 mmHg 49%
    12:00 +19°C° 0 mm 3 mps 765 mmHg 50%
    13:00 +20°C° 0 mm 3 mps 764 mmHg 51%
    14:00 +20°C° 0 mm 3 mps 764 mmHg 52%
    15:00 +18°C° 0 mm 2 mps 764 mmHg 62%
    16:00 +16°C° 0 mm 2 mps 764 mmHg 71%
    17:00 +14°C° 0 mm 2 mps 764 mmHg 81%
    18:00 +14°C° 0 mm 2 mps 765 mmHg 81%
    19:00 +14°C° 0 mm 2 mps 765 mmHg 81%
    20:00 +12°C° 0 mm 3 mps 765 mmHg 81%
    21:00 +12°C° 0 mm 3 mps 765 mmHg 81%
    22:00 +12°C° 0 mm 3 mps 766 mmHg 80%
    23:00 +11°C° 0 mm 3 mps 766 mmHg 79%

    26 November, Sunday

    Time Temperature Precipitation Wind Pressure Humidity
    00:00 +11°C° 0 mm 3 mps 766 mmHg 78%
    01:00 +11°C° 0 mm 3 mps 766 mmHg 78%
    02:00 +11°C° 0 mm 3 mps 766 mmHg 78%
    03:00 +11°C° 0.1 mm 3 mps 766 mmHg 77%
    04:00 +11°C° 0.1 mm 3 mps 765 mmHg 77%
    05:00 +11°C° 0.1 mm 3 mps 765 mmHg 76%
    06:00 +13°C° 0 mm 2 mps 766 mmHg 72%
    07:00 +14°C° 0 mm 2 mps 766 mmHg 68%
    08:00 +15°C° 0 mm 2 mps 766 mmHg 64%
    09:00 +16°C° 0 mm 2 mps 766 mmHg 58%
    10:00 +18°C° 0 mm 1 mps 766 mmHg 53%
    11:00 +20°C° 0 mm 1 mps 766 mmHg 48%
    12:00 +20°C° 0 mm 1 mps 765 mmHg 47%
    13:00 +19°C° 0 mm 2 mps 765 mmHg 47%
    14:00 +19°C° 0 mm 2 mps 765 mmHg 46%
    15:00 +17°C° 0 mm 2 mps 765 mmHg 55%
    16:00 +16°C° 0 mm 2 mps 765 mmHg 63%
    17:00 +14°C° 0 mm 2 mps 765 mmHg 72%
    18:00 +13°C° 0 mm 2 mps 765 mmHg 71%
    19:00 +13°C° 0 mm 2 mps 765 mmHg 70%
    20:00 +13°C° 0 mm 2 mps 765 mmHg 68%
    21:00 +13°C° 0 mm 2 mps 765 mmHg 68%
    22:00 +12°C° 0 mm 2 mps 765 mmHg 67%
    23:00 +12°C° 0 mm 2 mps 765 mmHg 67%
    Show more